7 * 24
多渠道服务支持
STARLINK-38031(NORAD编号69827)是美国SpaceX公司运营的星链(Starlink)低轨宽带通信卫星,属于星链巨型星座组网卫星之一,由猎鹰9号火箭发射入轨,运行于近地轨道,设计用于向全球范围(含通信基础设施薄弱区域)提供低延迟、高速率的卫星互联网接入服务。该卫星搭载星链标准相控阵通信载荷,支持千兆级传输速率,参与星链星座全球覆盖组网,可服务民用、应急通信、航空海事等多场景接入需求;同时这类低轨卫星也需关注其对天文观测的潜在影响。截至2026年7月,该卫星正常在轨服役,是SpaceX持续扩容星链星座、支撑全球数百万用户互联网服务的组成部分。
美国
(US)
| 数据来源 | 国际轨道数据 |
| 星历时间: | 2026-09-02T22:00:02+0800 1天前 查看轨道信息 |
| 半长轴: | 6840.814km |
| 偏心率: | 0.0001031 |
| 轨道倾角: | 53.160° |
| 近地点辐角 | 92.944° |
| 升交点赤经 | 55.673° |
| 平近点角 | 312.313° |
| 近地点: | 461.971km |
| 远地点: | 463.383km |
| 周期: | 93.847分钟 |
| 每日圈数: | 15.344091 |